Wind_Speed
2 2 6 11 5 3 7 7 9 10 8 9 9 14 17 16 14 10 8 17 17 17 16 15 16 12 11 13 11 13 14 13 13 13 14 14 11 12 11 12 12 12 13 14 14 13 11 11 11
1 3 8 8 3 5 6 10 11 11 9 8 7 8 10 14 14 14 11 11 14 17 16 13 13 16 16 15 17 16 16 16 16 15 15 15 16 15 12 15 15 14 15 16 16 16 13 12 9
4 4 5 3 4 5 7 12 12 11 10 8 6 6 8 9 12 15 13 12 15 16 15 17 17 15 15 16 16 16 18 18 18 18 19 19 18 18 18 18 18 17 17 17 19 20 20 19 16
6 7 6 7 6 7 8 12 13 12 11 9 8 8 8 8 9 11 12 11 13 13 14 15 17 18 17 17 19 18 18 19 20 21 22 22 22 22 22 22 20 21 21 19 21 19 20 20 20
9 9 9 6 7 9 10 11 12 12 11 10 10 11 11 11 11 11 12 14 14 15 17 19 17 18 20 20 21 21 22 22 23 23 24 24 25 25 24 23 24 24 24 24 23 22 20 20 21
11 11 9 10 11 11 12 13 14 14 14 13 13 13 13 12 13 13 14 15 17 19 21 21 21 22 23 24 24 24 24 24 26 27 27 28 28 29 29 28 27 27 27 27 27 26 24 23 24
11 12 13 12 12 13 14 15 15 16 15 15 15 15 15 14 14 14 16 17 20 21 22 23 25 26 26 27 27 28 28 27 27 29 30 31 32 32 32 32 33 32 31 31 31 30 29 27 25
11 13 14 14 13 14 15 17 16 17 17 17 17 13 15 15 16 18 20 22 24 26 27 27 28 28 29 30 30 30 31 32 33 33 33 34 35 36 36 37 36 35 36 36 35 33 33 32 30
11 12 12 13 12 15 15 18 19 19 19 19 19 20 21 22 22 23 24 26 27 28 29 31 32 33 34 34 34 35 36 35 36 36 37 37 38 39 40 40 40 40 39 39 40 39 37 35 35
10 11 11 12 13 13 15 18 19 21 21 21 21 21 22 24 25 27 28 28 29 30 32 32 33 35 36 37 38 38 39 41 42 41 41 42 42 42 43 44 44 44 44 43 42 42 41 40 38
11 13 13 14 13 14 15 17 19 21 23 23 24 25 26 26 28 28 28 29 29 30 30 32 33 33 35 37 38 39 39 39 41 43 45 46 47 48 48 47 48 48 48 48 47 46 45 43 42
12 12 13 14 15 16 17 18 20 21 23 25 26 27 27 27 27 28 27 28 31 32 33 34 36 36 36 35 34 34 35 38 40 41 43 45 47 51 52 53 52 52 52 52 53 52 50 47 46
14 15 15 15 17 18 18 21 23 25 26 26 27 26 26 26 26 27 28 29 32 34 35 35 35 35 35 35 36 37 38 40 40 40 42 44 46 48 50 54 57 57 56 57 56 56 56 53 50
14 14 15 16 17 18 19 23 23 24 24 25 25 26 26 26 27 29 30 33 34 35 36 36 35 36 38 40 42 44 47 50 51 53 54 53 50 49 51 52 55 58 60 59 59 60 59 58 57
12 14 16 18 19 20 19 24 24 23 23 24 24 25 27 28 29 31 33 34 35 37 37 35 35 37 39 41 44 49 53 56 56 57 59 60 61 60 56 53 55 58 59 60 62 62 61 63 61
15 18 17 16 16 19 19 25 23 23 24 25 26 27 29 31 31 33 33 35 37 35 33 35 36 37 39 44 48 49 48 48 47 47 49 53 56 59 60 61 56 54 60 63 62 63 63 64 65
16 14 15 17 19 23 24 25 22 24 26 29 30 32 32 32 32 33 34 35 33 32 34 35 37 40 45 49 50 53 51 47 42 39 39 37 38 46 53 57 59 59 55 58 64 64 64 63 65
11 12 17 21 24 26 29 29 29 30 32 33 35 35 33 33 33 34 33 32 32 34 36 37 40 45 51 55 58 54 49 44 42 41 40 38 39 39 42 49 54 55 53 50 55 64 64 64 63
20 21 23 25 26 28 31 34 31 30 36 37 38 35 34 33 33 32 31 31 32 35 37 41 45 50 55 60 60 56 51 46 42 40 40 40 40 41 41 42 47 50 50 47 46 51 61 62 62
19 22 24 23 24 28 30 37 36 40 40 40 38 37 35 33 30 29 29 31 33 35 38 43 48 52 57 59 53 51 49 43 40 38 38 39 39 38 40 42 43 46 49 46 44 44 48 56 57
21 23 24 24 24 28 33 42 20 18 27 32 34 34 31 27 27 27 28 30 32 36 41 45 50 54 56 51 49 46 44 43 43 41 40 37 36 35 36 37 40 43 46 48 43 42 44 46 48
22 20 21 20 21 10 13 14 23 26 21 23 26 25 24 24 25 26 28 30 34 38 42 47 52 52 48 46 45 44 43 43 42 42 39 35 33 32 32 33 35 37 41 45 46 42 42 44 43
18 19 19 22 24 26 22 12 14 12 16 17 18 18 21 22 23 26 28 31 34 39 44 50 49 45 44 42 41 42 42 42 42 39 37 33 31 30 31 32 33 34 35 39 44 43 41 42 42
19 16 18 22 15 5 8 10 9 11 15 17 15 16 17 20 22 23 27 32 36 41 46 47 45 43 42 40 40 41 41 40 39 37 35 33 30 30 30 31 33 34 34 35 38 43 42 41 42
15 9 5 4 2 5 6 10 30 26 26 22 18 15 16 17 19 22 28 34 39 42 43 42 43 41 39 39 40 40 39 39 38 37 35 33 32 31 30 32 32 33 34 35 36 39 42 41 41
10 10 6 6 3 4 10 13 10 11 14 17 15 13 14 14 18 24 33 39 39 40 41 42 43 40 38 38 39 39 37 37 37 36 35 35 35 33 32 32 33 32 34 35 36 38 40 41 41
8 11 11 7 9 5 9 13 18 22 23 17 13 14 13 15 22 35 35 36 37 40 42 42 42 38 37 38 38 36 34 34 34 34 34 35 36 36 34 34 34 34 33 34 35 38 38 40 40
22 12 8 8 4 6 8 12 25 17 12 12 15 14 16 19 34 35 35 35 37 42 42 42 38 37 37 37 34 33 32 32 32 32 33 34 35 35 36 35 36 36 35 33 35 36 36 37 39
20 24 18 10 8 4 4 8 8 11 15 20 13 15 20 31 37 37 32 35 40 42 41 38 36 35 36 34 32 31 30 31 30 31 32 33 34 35 36 36 36 35 34 34 34 34 36 36 37
25 24 24 13 9 12 4 28 34 30 17 13 17 21 27 36 39 32 34 38 41 41 38 35 34 34 34 32 31 30 30 29 29 30 31 32 33 34 36 35 33 32 32 32 33 32 33 35 35
Wind_Direction
281 201 178 165 181 195 171 178 176 177 177 185 178 186 207 226 199 219 231 211 212 223 230 251 208 228 227 235 225 225 225 234 246 234 247 267 248 256 246 244 241 239 240 245 244 247 259 261 265
281 179 163 178 222 206 184 189 188 191 200 198 203 217 229 237 240 243 246 223 216 227 243 235 225 242 243 230 231 232 228 234 239 248 250 243 262 261 254 257 239 238 242 242 247 254 262 263 273
229 212 212 225 239 218 198 195 196 203 205 216 234 242 249 261 268 264 265 252 241 241 234 245 257 260 257 256 260 259 247 244 242 242 244 248 251 252 258 263 253 249 250 251 251 255 259 263 263
238 235 239 237 246 233 218 204 203 206 220 235 250 267 265 267 263 260 269 268 273 268 267 257 257 263 271 270 275 267 265 256 250 249 247 249 249 252 257 257 252 254 253 251 255 257 261 260 261
245 240 240 250 245 237 226 219 219 222 233 246 256 270 280 284 282 276 272 276 272 268 267 275 273 268 272 273 274 272 270 261 254 252 254 254 253 254 254 256 260 255 253 256 256 252 257 264 267
244 238 240 243 252 248 235 225 227 235 243 252 262 271 276 279 280 275 273 270 269 271 276 279 277 276 276 278 278 275 274 271 261 256 254 255 256 256 255 255 253 254 254 256 257 256 255 260 267
240 242 250 257 259 247 238 236 237 243 251 257 265 270 279 282 280 276 275 273 275 278 279 277 277 279 278 275 274 274 272 269 268 265 262 259 256 255 255 254 255 256 255 254 255 257 258 256 257
247 249 260 263 258 246 240 236 239 246 249 258 264 269 277 277 277 280 284 287 289 289 289 288 287 284 282 282 281 276 270 268 266 265 265 264 262 260 258 259 257 255 254 255 256 255 256 260 258
256 252 256 256 252 247 244 242 244 248 250 255 261 267 271 274 278 282 284 285 285 282 281 282 284 285 286 285 284 283 282 277 272 270 267 264 264 263 261 258 258 258 256 255 255 255 254 253 257
256 257 262 260 256 253 247 247 248 250 256 261 267 268 270 273 276 278 280 282 282 283 284 285 286 287 286 286 284 282 280 278 277 274 271 269 268 265 262 261 260 258 257 257 255 255 255 254 253
268 261 266 267 266 262 257 252 253 256 260 264 266 268 271 273 275 276 277 279 280 281 283 283 283 282 282 283 284 284 282 279 277 276 274 271 269 267 265 262 261 260 259 259 258 255 254 254 255
268 265 266 268 265 262 262 263 262 262 264 264 266 269 270 270 272 275 279 281 285 288 289 290 291 291 291 290 286 283 281 281 282 280 275 271 268 268 267 265 262 259 257 256 257 258 256 254 251
277 276 271 265 262 260 261 261 262 265 267 269 271 272 274 276 276 279 280 282 284 287 289 291 292 292 293 294 294 294 293 290 286 280 277 275 272 269 265 263 264 262 259 256 254 254 255 255 254
281 278 275 268 263 261 259 261 261 267 268 269 271 274 275 277 279 281 283 288 290 293 296 297 297 298 300 301 302 301 299 298 296 294 292 288 280 274 269 266 263 261 261 258 255 252 252 252 252
282 275 276 273 271 266 270 269 273 272 271 271 272 273 274 276 278 282 286 289 292 293 292 292 294 295 295 295 294 294 294 292 291 290 289 288 287 286 281 271 265 262 261 259 258 255 251 249 249
278 281 269 275 275 274 273 275 277 275 276 276 274 272 271 274 277 282 285 289 289 290 292 296 297 297 299 302 304 304 302 299 294 288 282 280 280 279 279 281 276 264 259 259 258 257 254 250 248
277 264 271 281 285 283 279 281 280 279 280 278 277 274 274 276 280 281 286 287 288 290 292 294 299 303 305 307 310 314 316 315 310 304 299 289 276 270 271 272 274 275 267 257 254 255 254 251 248
273 263 274 283 290 284 281 284 283 283 282 281 277 274 276 280 281 284 285 287 290 293 297 302 305 307 309 312 316 317 316 315 311 306 300 294 288 279 271 268 269 272 273 269 257 253 252 252 249
269 267 277 287 283 280 282 283 284 282 281 281 277 277 276 276 280 283 285 287 290 296 301 305 307 309 312 315 316 315 314 311 307 301 295 291 289 287 282 275 271 273 274 273 268 259 253 252 252
265 270 280 286 282 283 284 284 285 283 282 276 273 272 271 273 277 278 280 286 293 297 302 306 308 311 313 314 313 311 310 309 305 300 296 293 289 284 279 276 273 271 272 273 271 267 259 255 255
268 276 283 282 286 288 298 298 288 286 284 273 270 269 271 272 271 274 280 287 293 298 302 305 308 310 313 313 311 309 309 309 306 303 300 296 291 287 282 277 272 270 270 273 272 268 265 258 257
274 281 284 284 297 288 288 291 290 291 273 264 267 269 264 264 267 273 280 287 292 296 301 305 308 311 312 311 310 310 309 307 305 303 299 296 293 290 287 285 280 274 271 270 273 271 265 262 256
268 282 283 289 288 289 277 243 284 282 277 273 262 256 257 262 269 275 282 287 292 299 303 306 310 313 313 310 309 309 308 307 305 302 299 298 296 294 291 288 284 281 277 272 271 272 267 263 260
272 280 293 289 279 253 249 224 273 260 279 276 269 261 260 265 270 276 283 291 298 303 307 311 314 315 312 311 310 309 309 307 304 303 301 301 300 296 293 289 287 285 281 276 271 270 269 263 261
257 273 308 300 245 249 224 242 264 272 275 276 272 271 265 265 271 280 289 295 303 308 313 315 314 316 312 310 310 311 311 308 306 305 303 303 301 299 296 291 288 286 284 279 275 269 267 264 260
236 235 224 250 250 286 255 245 273 269 270 270 278 270 262 266 279 291 299 306 308 315 318 318 316 315 311 310 312 313 311 308 307 306 306 305 304 302 298 295 291 287 285 283 278 271 267 264 259
249 221 229 252 293 306 247 268 270 268 272 273 271 273 269 280 297 308 310 311 313 318 318 317 314 312 312 313 314 312 310 307 306 306 306 305 304 302 300 297 293 289 285 282 279 272 267 264 259
238 235 213 208 267 266 266 270 259 271 266 270 287 271 277 286 311 313 315 313 316 318 317 315 312 312 313 313 313 312 310 308 306 305 304 302 301 301 299 297 293 290 287 283 280 275 268 262 258
239 226 223 216 217 212 296 262 272 271 283 300 275 273 283 302 313 315 314 314 317 316 315 313 311 312 312 313 313 313 312 309 307 306 306 303 302 302 302 299 294 290 287 283 279 276 269 262 256
248 238 229 217 209 215 236 278 281 278 278 279 288 293 293 309 313 312 314 316 315 314 313 312 311 311 313 314 315 315 312 310 310 309 308 305 303 303 304 301 296 292 289 284 279 276 269 261 254
Height
3144 3144 3144 3145 3151 3147 3146 3148 3148 3149 3150 3151 3152 3152 3154 3153 3154 3156 3152 3155 3156 3157 3159 3160 3161 3161 3162 3162 3163 3162 3162 3163 3164 3164 3166 3167 3166 3165 3166 3167 3168 3168 3169 3169 3169 3169 3169 3168 3168
3144 3144 3144 3145 3147 3145 3146 3146 3147 3149 3150 3150 3151 3152 3153 3152 3153 3152 3152 3153 3154 3156 3157 3158 3158 3158 3159 3159 3160 3160 3159 3160 3161 3161 3163 3164 3165 3165 3165 3166 3166 3166 3166 3167 3167 3167 3168 3167 3165
3144 3144 3145 3144 3144 3144 3144 3145 3146 3147 3148 3148 3149 3150 3150 3151 3150 3149 3149 3151 3153 3155 3156 3157 3156 3157 3157 3157 3157 3158 3158 3157 3158 3159 3160 3160 3161 3162 3163 3163 3164 3164 3164 3163 3164 3165 3165 3165 3166
3142 3143 3144 3142 3142 3142 3143 3144 3144 3146 3147 3147 3148 3149 3150 3150 3149 3149 3148 3148 3149 3150 3151 3153 3153 3153 3152 3152 3153 3154 3154 3156 3155 3155 3156 3156 3157 3157 3158 3159 3160 3160 3160 3159 3160 3161 3162 3162 3163
3141 3141 3140 3140 3140 3140 3141 3143 3143 3144 3145 3145 3146 3147 3147 3147 3147 3147 3147 3147 3148 3148 3149 3149 3149 3150 3150 3149 3149 3149 3149 3150 3151 3152 3152 3152 3152 3152 3153 3154 3155 3156 3156 3156 3157 3156 3158 3159 3160
3139 3139 3138 3138 3138 3139 3140 3140 3141 3142 3142 3143 3144 3144 3144 3144 3144 3144 3144 3145 3144 3144 3144 3144 3145 3145 3145 3145 3145 3145 3145 3145 3145 3147 3147 3147 3147 3148 3148 3149 3150 3150 3150 3151 3151 3152 3152 3153 3155
3137 3137 3136 3136 3137 3137 3137 3138 3139 3139 3140 3140 3140 3140 3141 3141 3141 3141 3141 3142 3142 3141 3141 3141 3140 3139 3139 3140 3140 3140 3140 3140 3141 3141 3142 3142 3142 3142 3142 3143 3145 3145 3145 3145 3145 3147 3148 3149 3150
3135 3136 3135 3134 3135 3135 3134 3135 3136 3136 3137 3137 3137 3137 3137 3137 3137 3137 3137 3137 3137 3137 3135 3134 3134 3134 3134 3133 3133 3133 3133 3133 3133 3134 3134 3135 3136 3136 3136 3137 3138 3139 3139 3140 3140 3141 3142 3144 3145
3132 3133 3132 3131 3132 3132 3132 3132 3133 3133 3133 3133 3134 3134 3134 3134 3133 3133 3133 3133 3132 3131 3130 3129 3128 3127 3126 3125 3125 3125 3124 3124 3125 3125 3125 3126 3126 3127 3128 3129 3130 3131 3131 3132 3133 3134 3135 3136 3137
3130 3130 3129 3129 3129 3129 3130 3130 3130 3130 3129 3130 3130 3130 3130 3129 3129 3128 3127 3125 3124 3123 3122 3122 3121 3120 3119 3118 3118 3117 3117 3116 3116 3116 3116 3116 3116 3117 3119 3119 3120 3121 3123 3123 3124 3126 3127 3129 3130
3127 3127 3127 3126 3126 3126 3126 3126 3126 3126 3126 3126 3126 3125 3124 3123 3122 3121 3120 3119 3117 3116 3115 3114 3114 3113 3112 3111 3109 3108 3108 3107 3107 3107 3107 3107 3107 3106 3106 3108 3109 3111 3112 3114 3114 3116 3118 3120 3122
3125 3124 3123 3123 3123 3123 3123 3122 3121 3121 3120 3119 3118 3118 3117 3116 3116 3115 3115 3114 3113 3111 3109 3107 3105 3103 3102 3101 3100 3100 3099 3098 3096 3096 3095 3096 3097 3096 3095 3094 3096 3097 3100 3101 3103 3105 3107 3109 3112
3121 3121 3121 3120 3119 3119 3119 3118 3117 3114 3114 3113 3112 3112 3111 3111 3110 3110 3109 3108 3106 3104 3102 3101 3099 3096 3094 3092 3090 3089 3087 3086 3085 3085 3084 3084 3083 3083 3083 3083 3083 3083 3084 3086 3089 3091 3094 3097 3100
3118 3117 3117 3116 3115 3115 3115 3112 3111 3110 3109 3108 3107 3107 3106 3105 3104 3103 3101 3099 3097 3095 3093 3091 3089 3087 3085 3082 3079 3077 3075 3073 3071 3069 3067 3067 3069 3071 3071 3070 3069 3069 3069 3070 3073 3076 3080 3083 3086
3114 3114 3112 3110 3110 3110 3110 3107 3105 3105 3104 3103 3102 3101 3100 3099 3097 3095 3092 3090 3088 3086 3084 3082 3081 3079 3077 3075 3073 3070 3066 3063 3061 3058 3055 3052 3050 3048 3051 3054 3055 3055 3056 3056 3056 3059 3063 3067 3071
3111 3109 3107 3105 3105 3105 3105 3102 3102 3100 3099 3097 3096 3094 3093 3091 3090 3088 3086 3084 3081 3078 3076 3074 3072 3071 3069 3067 3064 3062 3059 3057 3053 3050 3047 3044 3041 3038 3035 3033 3035 3038 3039 3040 3041 3042 3046 3050 3055
3107 3106 3104 3102 3101 3100 3099 3097 3096 3094 3093 3091 3090 3088 3086 3084 3083 3081 3079 3076 3074 3072 3070 3068 3066 3064 3061 3058 3054 3050 3045 3041 3037 3034 3031 3030 3028 3026 3024 3021 3019 3017 3020 3023 3024 3026 3027 3032 3037
3104 3102 3101 3099 3098 3094 3091 3090 3091 3089 3087 3084 3082 3080 3079 3077 3075 3073 3070 3068 3066 3063 3061 3059 3057 3054 3049 3044 3040 3037 3034 3031 3027 3024 3019 3016 3014 3012 3010 3008 3005 3003 3003 3005 3007 3008 3011 3013 3018
3098 3097 3095 3094 3091 3087 3085 3081 3082 3081 3078 3076 3073 3073 3072 3071 3069 3066 3064 3061 3059 3056 3054 3051 3048 3044 3038 3032 3027 3024 3022 3021 3018 3015 3012 3008 3003 2999 2996 2995 2993 2991 2990 2991 2991 2992 2994 2997 2999
3093 3091 3089 3088 3084 3081 3078 3070 3073 3071 3068 3065 3064 3062 3062 3062 3061 3060 3058 3056 3054 3051 3048 3044 3039 3034 3030 3024 3020 3016 3011 3009 3007 3005 3002 2998 2994 2991 2987 2984 2982 2979 2976 2977 2977 2978 2980 2982 2986
3090 3087 3084 3083 3079 3075 3070 3056 3057 3061 3058 3055 3054 3053 3053 3054 3053 3052 3050 3049 3047 3044 3041 3037 3032 3027 3021 3015 3010 3006 3002 2997 2992 2991 2988 2985 2982 2979 2976 2974 2971 2969 2966 2963 2964 2966 2967 2970 2974
3084 3082 3080 3077 3075 3072 3067 3056 3041 3047 3046 3045 3045 3046 3046 3046 3046 3045 3044 3042 3040 3037 3033 3029 3024 3019 3012 3006 3000 2995 2991 2987 2984 2980 2977 2974 2971 2969 2966 2963 2961 2959 2956 2954 2953 2954 2956 2956 2962
3077 3075 3074 3071 3068 3064 3059 3061 3033 3037 3038 3039 3038 3037 3038 3039 3040 3039 3038 3035 3033 3029 3025 3020 3015 3010 3003 2997 2992 2987 2983 2978 2973 2969 2966 2964 2962 2959 2956 2953 2951 2949 2947 2945 2943 2943 2944 2945 2949
3074 3072 3069 3064 3062 3059 3053 3055 3030 3032 3031 3031 3033 3033 3033 3033 3034 3034 3032 3029 3026 3022 3016 3010 3004 3001 2993 2988 2984 2978 2973 2968 2963 2960 2956 2954 2952 2950 2947 2944 2941 2939 2937 2936 2934 2933 2933 2935 2937
3070 3071 3068 3064 3060 3049 3047 3046 3025 3027 3024 3024 3026 3028 3028 3027 3027 3027 3026 3024 3020 3014 3008 3002 2996 2992 2985 2980 2975 2970 2964 2959 2954 2951 2947 2945 2943 2940 2938 2934 2932 2929 2927 2925 2924 2923 2923 2924 2925
3064 3067 3068 3065 3056 3047 3046 3030 3018 3020 3019 3018 3020 3021 3022 3022 3021 3021 3019 3016 3010 3004 2999 2993 2987 2982 2977 2971 2967 2962 2956 2950 2946 2942 2938 2935 2931 2930 2928 2925 2922 2920 2917 2915 2914 2913 2912 2912 2914
3057 3060 3061 3058 3054 3051 3028 3018 3019 3014 3012 3013 3014 3016 3017 3017 3016 3014 3010 3006 3001 2995 2990 2984 2979 2974 2969 2963 2958 2954 2949 2943 2938 2934 2931 2926 2923 2920 2917 2915 2912 2909 2907 2905 2903 2901 2901 2901 2902
3051 3056 3056 3056 3052 3046 3022 3015 3009 3007 3008 3009 3011 3012 3012 3011 3009 3006 3002 2998 2993 2987 2981 2976 2971 2966 2960 2955 2951 2946 2941 2936 2931 2927 2923 2919 2915 2911 2907 2905 2901 2898 2896 2894 2892 2890 2890 2890 2891
3042 3043 3046 3047 3044 3039 3032 3005 3005 3005 3004 3003 3004 3005 3006 3004 3001 2998 2994 2990 2985 2980 2974 2968 2963 2958 2953 2948 2943 2938 2934 2928 2924 2920 2916 2911 2907 2902 2898 2895 2891 2888 2885 2883 2881 2880 2879 2879 2880
3033 3034 3036 3036 3032 3028 3026 2998 3003 2999 2997 2998 2999 2999 2998 2996 2993 2990 2987 2982 2977 2972 2966 2961 2956 2950 2945 2940 2935 2931 2926 2921 2917 2912 2908 2903 2898 2894 2889 2884 2880 2877 2875 2873 2870 2869 2868 2868 2869